Location: East Meadow
(40.7140°N, 73.5590°W)
Time: 21:10:02
(UTC+00:00)

Meteor 2-15 - Pass Details

Date: 05 April 2020
Orbit: 937 x 955 km, 82.5° (Epoch: 06 June)

Event Time Altitude Azimuth Distance (km) Brightness Sun altitude
Rises 23:41:04 0° 179° (S) 3,582 7.3 -4.0°
Reaches altitude 10° 23:43:32 10° 177° (S) 2,641 6.6 -4.5°
Maximum altitude 23:49:31 70° 95° (E) 996 4.4 -5.6°
Drops below altitude 10° 23:55:33 10° 13° (NNE) 2,659 6.8 -6.7°
Sets 23:58:03 0° 11° (N) 3,608 7.5 -7.2°
